QPF
0.00 0.00 0.00 0.00 0.00 0.00 0.00 0.00 0.00 0.00 0.00 0.01 0.01 0.00 0.00 0.00 0.00 0.00 0.00 0.00 0.00 0.00 0.00 0.00 0.00 0.02 0.01 0.00 0.00 0.00 0.00 0.00 0.00 0.00 0.00 0.00 0.00 0.00 0.00 0.00 0.00 0.01 0.01 0.00 0.00 0.00 0.00 0.00 0.00
0.00 0.00 0.00 0.00 0.00 0.00 0.00 0.00 0.00 0.00 0.00 0.01 0.01 0.00 0.00 0.00 0.00 0.00 0.00 0.00 0.00 0.00 0.00 0.00 0.00 0.01 0.01 0.00 0.00 0.00 0.00 0.00 0.00 0.00 0.00 0.00 0.00 0.00 0.00 0.00 0.00 0.00 0.01 0.00 0.00 0.00 0.00 0.00 0.00
0.00 0.00 0.00 0.00 0.00 0.00 0.00 0.00 0.00 0.00 0.01 0.01 0.00 0.00 0.00 0.00 0.00 0.00 0.00 0.00 0.00 0.00 0.00 0.00 0.00 0.00 0.00 0.00 0.00 0.00 0.00 0.00 0.00 0.00 0.00 0.00 0.00 0.00 0.00 0.00 0.00 0.00 0.00 0.00 0.00 0.00 0.00 0.00 0.00
0.00 0.00 0.00 0.00 0.00 0.00 0.00 0.00 0.00 0.00 0.01 0.01 0.00 0.00 0.00 0.00 0.00 0.00 0.00 0.00 0.00 0.00 0.00 0.00 0.00 0.00 0.00 0.00 0.00 0.00 0.00 0.00 0.00 0.00 0.00 0.00 0.00 0.00 0.00 0.00 0.00 0.00 0.00 0.00 0.00 0.00 0.00 0.00 0.00
0.00 0.00 0.00 0.00 0.00 0.00 0.00 0.00 0.00 0.01 0.01 0.00 0.00 0.00 0.00 0.00 0.00 0.00 0.00 0.00 0.00 0.00 0.00 0.00 0.00 0.00 0.00 0.00 0.00 0.00 0.00 0.00 0.00 0.00 0.00 0.00 0.00 0.00 0.00 0.00 0.00 0.00 0.00 0.00 0.00 0.00 0.00 0.00 0.00
0.00 0.00 0.00 0.00 0.00 0.00 0.00 0.00 0.00 0.00 0.00 0.00 0.00 0.00 0.00 0.00 0.00 0.00 0.00 0.00 0.00 0.00 0.00 0.00 0.00 0.00 0.00 0.00 0.00 0.00 0.00 0.00 0.00 0.00 0.00 0.00 0.00 0.00 0.00 0.00 0.00 0.00 0.00 0.01 0.01 0.01 0.00 0.00 0.00
0.00 0.00 0.00 0.00 0.00 0.00 0.00 0.00 0.00 0.00 0.00 0.00 0.00 0.00 0.00 0.00 0.00 0.00 0.00 0.00 0.00 0.00 0.00 0.00 0.00 0.00 0.00 0.00 0.00 0.00 0.00 0.00 0.00 0.00 0.00 0.00 0.00 0.00 0.00 0.00 0.00 0.00 0.00 0.00 0.00 0.00 0.00 0.00 0.00
0.00 0.00 0.00 0.00 0.00 0.00 0.00 0.00 0.01 0.01 0.01 0.00 0.00 0.00 0.00 0.00 0.00 0.00 0.00 0.00 0.00 0.00 0.00 0.00 0.00 0.00 0.00 0.00 0.00 0.00 0.00 0.00 0.00 0.00 0.00 0.00 0.00 0.00 0.00 0.00 0.00 0.00 0.00 0.00 0.00 0.00 0.00 0.00 0.00
0.00 0.00 0.00 0.00 0.00 0.00 0.00 0.00 0.01 0.02 0.01 0.00 0.00 0.00 0.00 0.00 0.00 0.00 0.00 0.00 0.00 0.00 0.00 0.00 0.00 0.00 0.00 0.00 0.00 0.00 0.00 0.00 0.00 0.00 0.00 0.00 0.00 0.00 0.00 0.00 0.00 0.00 0.00 0.00 0.00 0.00 0.00 0.00 0.00
0.00 0.00 0.00 0.00 0.00 0.00 0.00 0.01 0.01 0.01 0.00 0.00 0.00 0.00 0.00 0.00 0.00 0.00 0.00 0.00 0.00 0.00 0.00 0.00 0.00 0.00 0.00 0.00 0.00 0.00 0.00 0.00 0.00 0.00 0.00 0.00 0.00 0.00 0.00 0.00 0.00 0.00 0.00 0.00 0.00 0.00 0.00 0.00 0.00
0.00 0.00 0.00 0.00 0.00 0.00 0.00 0.00 0.01 0.01 0.01 0.00 0.00 0.00 0.00 0.00 0.00 0.00 0.00 0.00 0.00 0.00 0.00 0.00 0.00 0.00 0.00 0.00 0.00 0.00 0.00 0.00 0.00 0.00 0.00 0.00 0.00 0.00 0.00 0.00 0.00 0.00 0.00 0.00 0.00 0.00 0.00 0.00 0.00
0.00 0.00 0.00 0.00 0.00 0.00 0.00 0.00 0.01 0.00 0.00 0.00 0.00 0.00 0.00 0.00 0.00 0.00 0.00 0.00 0.00 0.00 0.00 0.00 0.00 0.00 0.00 0.00 0.00 0.00 0.00 0.00 0.00 0.00 0.00 0.00 0.00 0.00 0.00 0.00 0.00 0.00 0.00 0.00 0.00 0.00 0.00 0.00 0.00
0.00 0.00 0.00 0.00 0.00 0.00 0.00 0.00 0.00 0.00 0.00 0.00 0.00 0.00 0.00 0.00 0.00 0.00 0.00 0.00 0.00 0.00 0.00 0.00 0.00 0.00 0.00 0.00 0.00 0.00 0.00 0.00 0.00 0.00 0.00 0.00 0.00 0.00 0.00 0.00 0.00 0.00 0.00 0.00 0.00 0.00 0.00 0.00 0.00
0.00 0.00 0.00 0.00 0.00 0.00 0.00 0.00 0.00 0.00 0.00 0.00 0.00 0.00 0.00 0.00 0.00 0.00 0.00 0.00 0.00 0.00 0.00 0.00 0.00 0.00 0.00 0.00 0.00 0.00 0.00 0.00 0.00 0.00 0.00 0.00 0.00 0.00 0.00 0.00 0.00 0.00 0.00 0.00 0.00 0.00 0.00 0.00 0.00
0.00 0.00 0.00 0.00 0.00 0.00 0.00 0.00 0.00 0.00 0.00 0.00 0.00 0.00 0.00 0.00 0.00 0.00 0.00 0.00 0.00 0.00 0.00 0.00 0.00 0.00 0.00 0.00 0.00 0.00 0.00 0.00 0.00 0.00 0.00 0.00 0.00 0.00 0.00 0.00 0.00 0.00 0.00 0.01 0.00 0.00 0.00 0.00 0.00
0.00 0.00 0.00 0.00 0.00 0.00 0.00 0.00 0.00 0.00 0.00 0.00 0.00 0.00 0.00 0.00 0.00 0.00 0.00 0.00 0.00 0.00 0.00 0.00 0.00 0.00 0.00 0.00 0.00 0.00 0.00 0.00 0.00 0.00 0.00 0.00 0.00 0.00 0.01 0.01 0.01 0.02 0.02 0.02 0.02 0.02 0.02 0.01 0.01
0.00 0.00 0.00 0.00 0.00 0.00 0.00 0.00 0.00 0.00 0.00 0.00 0.00 0.00 0.00 0.00 0.00 0.00 0.00 0.00 0.00 0.00 0.00 0.00 0.00 0.00 0.00 0.00 0.00 0.01 0.01 0.01 0.01 0.01 0.01 0.02 0.02 0.03 0.05 0.05 0.06 0.06 0.05 0.05 0.05 0.04 0.04 0.03 0.03
0.00 0.00 0.00 0.00 0.00 0.00 0.00 0.00 0.00 0.00 0.00 0.00 0.00 0.00 0.00 0.00 0.00 0.00 0.00 0.00 0.00 0.00 0.00 0.00 0.00 0.01 0.01 0.02 0.02 0.04 0.05 0.08 0.09 0.09 0.09 0.09 0.10 0.11 0.12 0.11 0.11 0.10 0.09 0.08 0.06 0.05 0.04 0.03 0.02
0.00 0.00 0.00 0.00 0.00 0.00 0.00 0.00 0.00 0.00 0.00 0.00 0.00 0.00 0.00 0.00 0.00 0.00 0.00 0.00 0.00 0.00 0.00 0.01 0.02 0.02 0.04 0.06 0.10 0.15 0.19 0.24 0.26 0.26 0.25 0.23 0.22 0.22 0.21 0.19 0.18 0.15 0.12 0.10 0.08 0.05 0.03 0.02 0.01
0.00 0.00 0.00 0.00 0.00 0.00 0.00 0.00 0.00 0.00 0.00 0.00 0.00 0.00 0.00 0.00 0.00 0.00 0.00 0.00 0.00 0.01 0.02 0.03 0.04 0.08 0.14 0.21 0.30 0.40 0.49 0.55 0.53 0.48 0.42 0.39 0.37 0.33 0.31 0.29 0.26 0.21 0.15 0.10 0.07 0.04 0.02 0.01 0.00
0.00 0.00 0.00 0.00 0.00 0.00 0.00 0.00 0.00 0.00 0.00 0.00 0.00 0.00 0.00 0.00 0.00 0.00 0.00 0.00 0.00 0.01 0.03 0.06 0.09 0.18 0.28 0.42 0.57 0.63 0.69 0.73 0.71 0.65 0.59 0.56 0.52 0.47 0.41 0.35 0.27 0.19 0.14 0.09 0.05 0.02 0.01 0.00 0.00
0.00 0.00 0.00 0.00 0.00 0.00 0.00 0.00 0.00 0.00 0.00 0.00 0.00 0.00 0.00 0.00 0.00 0.00 0.00 0.00 0.00 0.01 0.04 0.07 0.13 0.28 0.41 0.58 0.77 0.89 0.96 0.96 0.84 0.74 0.67 0.62 0.58 0.52 0.42 0.33 0.25 0.16 0.10 0.05 0.02 0.01 0.00 0.00 0.00
0.00 0.00 0.00 0.00 0.00 0.00 0.00 0.00 0.00 0.00 0.00 0.00 0.00 0.00 0.00 0.00 0.00 0.00 0.00 0.00 0.00 0.02 0.06 0.11 0.23 0.40 0.58 0.85 1.07 1.12 1.02 0.83 0.68 0.59 0.53 0.53 0.53 0.46 0.35 0.24 0.14 0.07 0.03 0.01 0.01 0.00 0.00 0.00 0.00
0.00 0.00 0.00 0.00 0.00 0.00 0.00 0.00 0.00 0.00 0.00 0.00 0.00 0.00 0.00 0.00 0.00 0.00 0.00 0.01 0.02 0.05 0.11 0.21 0.33 0.52 0.74 0.97 1.06 0.89 0.67 0.56 0.48 0.43 0.40 0.39 0.35 0.28 0.18 0.09 0.05 0.03 0.01 0.01 0.00 0.00 0.00 0.00 0.00
0.00 0.00 0.00 0.00 0.00 0.00 0.00 0.00 0.00 0.00 0.00 0.00 0.00 0.00 0.00 0.00 0.00 0.00 0.01 0.02 0.06 0.13 0.21 0.31 0.45 0.61 0.73 0.81 0.79 0.63 0.45 0.36 0.33 0.30 0.26 0.22 0.16 0.11 0.07 0.04 0.02 0.01 0.01 0.01 0.00 0.00 0.00 0.00 0.00
0.00 0.00 0.00 0.00 0.00 0.00 0.00 0.00 0.00 0.00 0.00 0.00 0.00 0.01 0.01 0.01 0.01 0.02 0.03 0.06 0.14 0.22 0.29 0.36 0.46 0.54 0.53 0.46 0.38 0.29 0.23 0.21 0.19 0.18 0.14 0.10 0.08 0.06 0.04 0.02 0.01 0.01 0.01 0.00 0.00 0.00 0.00 0.00 0.00
0.00 0.00 0.00 0.00 0.00 0.00 0.00 0.00 0.00 0.00 0.01 0.01 0.01 0.01 0.01 0.02 0.02 0.03 0.04 0.08 0.13 0.19 0.23 0.26 0.28 0.28 0.25 0.21 0.18 0.15 0.14 0.13 0.11 0.09 0.06 0.05 0.04 0.03 0.02 0.01 0.01 0.01 0.00 0.00 0.00 0.00 0.00 0.00 0.00
0.00 0.00 0.00 0.00 0.00 0.00 0.00 0.00 0.00 0.00 0.01 0.01 0.01 0.01 0.02 0.03 0.03 0.04 0.05 0.06 0.08 0.10 0.12 0.15 0.13 0.13 0.13 0.12 0.11 0.08 0.07 0.06 0.05 0.04 0.04 0.03 0.02 0.02 0.01 0.01 0.00 0.00 0.00 0.00 0.00 0.00 0.00 0.00 0.00
0.00 0.00 0.00 0.00 0.00 0.00 0.00 0.00 0.00 0.00 0.01 0.01 0.01 0.01 0.02 0.02 0.03 0.04 0.04 0.04 0.05 0.05 0.05 0.06 0.07 0.06 0.05 0.05 0.04 0.03 0.03 0.03 0.02 0.02 0.02 0.02 0.01 0.01 0.00 0.00 0.00 0.00 0.00 0.00 0.00 0.00 0.00 0.00 0.00
0.00 0.00 0.00 0.00 0.00 0.00 0.00 0.00 0.00 0.00 0.01 0.01 0.01 0.02 0.02 0.02 0.02 0.02 0.02 0.02 0.02 0.02 0.03 0.03 0.03 0.02 0.02 0.02 0.01 0.01 0.01 0.01 0.01 0.01 0.01 0.01 0.00 0.00 0.00 0.00 0.00 0.00 0.00 0.00 0.00 0.00 0.00 0.00 0.00
MSLP
1011.50 1012.65 1013.94 1015.14 1016.05 1016.53 1016.56 1016.17 1015.50 1014.74 1014.05 1013.56 1013.33 1013.32 1013.46 1013.62 1013.71 1013.64 1013.43 1013.11 1012.78 1012.53 1012.45 1012.55 1012.84 1013.24 1013.68 1014.07 1014.37 1014.55 1014.65 1014.71 1014.79 1014.94 1015.18 1015.49 1015.84 1016.19 1016.48 1016.68 1016.81 1016.87 1016.91 1016.96 1017.05 1017.19 1017.36 1017.54 1017.69
1012.06 1013.37 1014.72 1015.88 1016.65 1016.93 1016.68 1016.01 1015.09 1014.10 1013.26 1012.68 1012.41 1012.42 1012.60 1012.83 1012.99 1013.00 1012.86 1012.62 1012.37 1012.20 1012.18 1012.35 1012.70 1013.15 1013.62 1014.05 1014.38 1014.60 1014.73 1014.83 1014.95 1015.13 1015.38 1015.69 1016.01 1016.32 1016.56 1016.71 1016.79 1016.83 1016.87 1016.93 1017.04 1017.20 1017.39 1017.58 1017.73
1012.71 1014.11 1015.45 1016.51 1017.11 1017.15 1016.66 1015.75 1014.62 1013.49 1012.55 1011.94 1011.67 1011.71 1011.95 1012.23 1012.44 1012.51 1012.43 1012.25 1012.07 1011.96 1012.00 1012.22 1012.61 1013.08 1013.58 1014.02 1014.36 1014.60 1014.76 1014.89 1015.04 1015.24 1015.49 1015.78 1016.07 1016.33 1016.51 1016.62 1016.67 1016.69 1016.74 1016.83 1016.98 1017.17 1017.39 1017.59 1017.74
1013.38 1014.80 1016.07 1016.98 1017.38 1017.20 1016.49 1015.40 1014.15 1012.95 1011.99 1011.39 1011.18 1011.27 1011.55 1011.87 1012.13 1012.24 1012.20 1012.07 1011.93 1011.87 1011.96 1012.21 1012.61 1013.09 1013.57 1014.00 1014.34 1014.58 1014.75 1014.90 1015.07 1015.27 1015.53 1015.80 1016.05 1016.26 1016.40 1016.47 1016.49 1016.52 1016.59 1016.71 1016.91 1017.15 1017.40 1017.61 1017.77
1014.02 1015.37 1016.51 1017.23 1017.41 1017.03 1016.16 1014.97 1013.67 1012.48 1011.58 1011.06 1010.92 1011.07 1011.40 1011.77 1012.05 1012.18 1012.18 1012.08 1011.98 1011.96 1012.07 1012.34 1012.73 1013.18 1013.63 1014.03 1014.33 1014.56 1014.72 1014.88 1015.05 1015.27 1015.51 1015.77 1016.00 1016.17 1016.28 1016.32 1016.35 1016.39 1016.48 1016.64 1016.88 1017.15 1017.43 1017.66 1017.81
1014.53 1015.76 1016.70 1017.20 1017.17 1016.63 1015.65 1014.43 1013.16 1012.07 1011.28 1010.87 1010.83 1011.07 1011.44 1011.83 1012.13 1012.28 1012.30 1012.23 1012.17 1012.18 1012.31 1012.57 1012.94 1013.35 1013.75 1014.08 1014.34 1014.53 1014.68 1014.84 1015.02 1015.24 1015.50 1015.75 1015.97 1016.12 1016.21 1016.25 1016.28 1016.33 1016.45 1016.65 1016.91 1017.21 1017.50 1017.72 1017.86
1014.88 1015.92 1016.63 1016.89 1016.67 1015.98 1014.95 1013.76 1012.59 1011.64 1011.01 1010.75 1010.82 1011.13 1011.55 1011.95 1012.26 1012.43 1012.46 1012.44 1012.41 1012.45 1012.60 1012.85 1013.19 1013.54 1013.87 1014.15 1014.35 1014.50 1014.63 1014.79 1014.98 1015.23 1015.49 1015.76 1015.98 1016.14 1016.23 1016.27 1016.31 1016.37 1016.51 1016.72 1017.00 1017.30 1017.58 1017.79 1017.91
1015.03 1015.84 1016.30 1016.32 1015.91 1015.13 1014.09 1012.97 1011.94 1011.15 1010.70 1010.59 1010.76 1011.14 1011.59 1012.01 1012.33 1012.50 1012.57 1012.58 1012.60 1012.67 1012.84 1013.09 1013.39 1013.69 1013.96 1014.17 1014.32 1014.44 1014.57 1014.72 1014.94 1015.21 1015.50 1015.79 1016.03 1016.20 1016.31 1016.36 1016.41 1016.49 1016.63 1016.84 1017.11 1017.40 1017.66 1017.85 1017.94
1014.99 1015.55 1015.75 1015.55 1014.98 1014.12 1013.11 1012.09 1011.21 1010.60 1010.31 1010.34 1010.61 1011.03 1011.50 1011.92 1012.24 1012.43 1012.53 1012.58 1012.64 1012.76 1012.95 1013.19 1013.47 1013.73 1013.95 1014.11 1014.23 1014.33 1014.45 1014.62 1014.87 1015.17 1015.50 1015.82 1016.09 1016.29 1016.41 1016.49 1016.55 1016.63 1016.78 1016.98 1017.23 1017.50 1017.73 1017.89 1017.97
1014.79 1015.11 1015.06 1014.67 1013.97 1013.07 1012.10 1011.19 1010.47 1010.02 1009.87 1010.00 1010.33 1010.78 1011.25 1011.66 1011.97 1012.17 1012.29 1012.38 1012.49 1012.64 1012.86 1013.11 1013.37 1013.61 1013.80 1013.94 1014.04 1014.14 1014.27 1014.47 1014.74 1015.08 1015.45 1015.80 1016.11 1016.34 1016.50 1016.60 1016.68 1016.78 1016.92 1017.12 1017.36 1017.60 1017.81 1017.96 1018.02
1014.49 1014.58 1014.33 1013.78 1012.99 1012.09 1011.18 1010.38 1009.79 1009.48 1009.43 1009.62 1009.98 1010.42 1010.86 1011.24 1011.52 1011.72 1011.86 1011.98 1012.13 1012.31 1012.55 1012.81 1013.08 1013.31 1013.49 1013.63 1013.74 1013.86 1014.02 1014.25 1014.56 1014.94 1015.34 1015.73 1016.07 1016.34 1016.54 1016.67 1016.78 1016.90 1017.06 1017.25 1017.49 1017.72 1017.93 1018.07 1018.14
1014.15 1014.06 1013.65 1012.99 1012.16 1011.28 1010.44 1009.75 1009.28 1009.06 1009.07 1009.28 1009.62 1010.02 1010.40 1010.72 1010.97 1011.14 1011.28 1011.42 1011.58 1011.79 1012.05 1012.32 1012.60 1012.85 1013.05 1013.22 1013.36 1013.52 1013.73 1014.00 1014.34 1014.75 1015.18 1015.59 1015.97 1016.28 1016.51 1016.69 1016.84 1017.00 1017.18 1017.40 1017.64 1017.89 1018.10 1018.26 1018.35
1013.84 1013.61 1013.10 1012.39 1011.57 1010.74 1009.99 1009.39 1009.00 1008.83 1008.86 1009.05 1009.33 1009.64 1009.94 1010.18 1010.36 1010.50 1010.62 1010.75 1010.91 1011.13 1011.40 1011.70 1012.00 1012.28 1012.53 1012.75 1012.96 1013.18 1013.44 1013.75 1014.12 1014.55 1014.99 1015.43 1015.83 1016.17 1016.45 1016.68 1016.89 1017.09 1017.32 1017.57 1017.84 1018.11 1018.36 1018.55 1018.68
1013.60 1013.29 1012.74 1012.04 1011.27 1010.51 1009.86 1009.34 1009.00 1008.84 1008.84 1008.96 1009.14 1009.34 1009.52 1009.67 1009.77 1009.85 1009.93 1010.03 1010.19 1010.41 1010.69 1011.01 1011.35 1011.70 1012.02 1012.33 1012.62 1012.91 1013.23 1013.58 1013.98 1014.41 1014.85 1015.29 1015.70 1016.07 1016.39 1016.67 1016.94 1017.20 1017.48 1017.78 1018.10 1018.40 1018.69 1018.93 1019.10
1013.48 1013.13 1012.59 1011.94 1011.26 1010.60 1010.03 1009.58 1009.26 1009.07 1008.99 1009.00 1009.05 1009.12 1009.17 1009.21 1009.22 1009.23 1009.26 1009.33 1009.47 1009.69 1009.99 1010.35 1010.75 1011.18 1011.60 1012.02 1012.41 1012.80 1013.18 1013.57 1013.97 1014.39 1014.82 1015.24 1015.64 1016.03 1016.38 1016.71 1017.04 1017.36 1017.69 1018.04 1018.39 1018.74 1019.06 1019.34 1019.56
1013.46 1013.12 1012.64 1012.08 1011.51 1010.95 1010.46 1010.04 1009.71 1009.45 1009.26 1009.13 1009.02 1008.94 1008.86 1008.78 1008.70 1008.64 1008.63 1008.67 1008.81 1009.03 1009.36 1009.77 1010.26 1010.79 1011.34 1011.88 1012.39 1012.87 1013.32 1013.75 1014.15 1014.54 1014.94 1015.32 1015.71 1016.09 1016.46 1016.83 1017.20 1017.57 1017.95 1018.32 1018.71 1019.07 1019.42 1019.73 1019.99
1013.53 1013.23 1012.84 1012.40 1011.95 1011.50 1011.07 1010.66 1010.27 1009.91 1009.58 1009.27 1009.00 1008.75 1008.54 1008.35 1008.20 1008.10 1008.05 1008.09 1008.23 1008.48 1008.85 1009.34 1009.92 1010.58 1011.26 1011.93 1012.57 1013.15 1013.67 1014.12 1014.51 1014.88 1015.22 1015.57 1015.91 1016.28 1016.65 1017.03 1017.43 1017.82 1018.22 1018.62 1019.01 1019.38 1019.73 1020.06 1020.34
1013.64 1013.42 1013.15 1012.84 1012.51 1012.15 1011.76 1011.34 1010.87 1010.38 1009.87 1009.39 1008.94 1008.54 1008.20 1007.93 1007.72 1007.59 1007.54 1007.59 1007.75 1008.05 1008.48 1009.05 1009.74 1010.52 1011.34 1012.15 1012.91 1013.59 1014.16 1014.64 1015.03 1015.36 1015.65 1015.94 1016.24 1016.57 1016.93 1017.31 1017.71 1018.11 1018.51 1018.90 1019.27 1019.63 1019.97 1020.29 1020.58
1013.75 1013.63 1013.50 1013.33 1013.13 1012.86 1012.49 1012.02 1011.45 1010.80 1010.12 1009.45 1008.83 1008.29 1007.85 1007.51 1007.28 1007.15 1007.12 1007.20 1007.41 1007.76 1008.27 1008.92 1009.71 1010.60 1011.54 1012.46 1013.33 1014.09 1014.73 1015.23 1015.61 1015.91 1016.15 1016.39 1016.66 1016.95 1017.28 1017.65 1018.03 1018.42 1018.80 1019.16 1019.51 1019.83 1020.15 1020.44 1020.72
1013.79 1013.81 1013.83 1013.83 1013.75 1013.56 1013.21 1012.68 1012.00 1011.19 1010.34 1009.49 1008.71 1008.05 1007.53 1007.16 1006.93 1006.83 1006.84 1006.98 1007.24 1007.65 1008.21 1008.93 1009.79 1010.76 1011.79 1012.81 1013.75 1014.58 1015.26 1015.78 1016.16 1016.44 1016.66 1016.87 1017.09 1017.35 1017.67 1018.01 1018.38 1018.74 1019.09 1019.42 1019.72 1020.00 1020.28 1020.54 1020.81
1013.74 1013.92 1014.12 1014.29 1014.35 1014.23 1013.89 1013.31 1012.52 1011.57 1010.55 1009.55 1008.65 1007.91 1007.34 1006.96 1006.76 1006.71 1006.78 1006.97 1007.28 1007.73 1008.32 1009.07 1009.97 1010.97 1012.04 1013.10 1014.09 1014.96 1015.68 1016.22 1016.61 1016.88 1017.09 1017.29 1017.50 1017.75 1018.05 1018.38 1018.73 1019.07 1019.39 1019.68 1019.94 1020.18 1020.41 1020.65 1020.89
1013.58 1013.94 1014.33 1014.67 1014.87 1014.84 1014.52 1013.91 1013.03 1011.97 1010.83 1009.72 1008.74 1007.94 1007.36 1007.01 1006.85 1006.85 1006.98 1007.22 1007.56 1008.02 1008.61 1009.35 1010.22 1011.21 1012.26 1013.31 1014.31 1015.19 1015.92 1016.49 1016.90 1017.19 1017.42 1017.63 1017.85 1018.11 1018.41 1018.74 1019.08 1019.41 1019.70 1019.97 1020.19 1020.40 1020.60 1020.80 1021.02
1013.30 1013.85 1014.44 1014.96 1015.30 1015.36 1015.08 1014.46 1013.54 1012.41 1011.20 1010.03 1009.01 1008.21 1007.66 1007.35 1007.25 1007.32 1007.50 1007.77 1008.12 1008.55 1009.10 1009.76 1010.56 1011.47 1012.46 1013.46 1014.42 1015.29 1016.02 1016.60 1017.04 1017.38 1017.64 1017.89 1018.14 1018.43 1018.75 1019.09 1019.43 1019.76 1020.05 1020.29 1020.50 1020.68 1020.86 1021.03 1021.22
1012.93 1013.67 1014.45 1015.14 1015.61 1015.77 1015.55 1014.95 1014.03 1012.88 1011.66 1010.49 1009.49 1008.73 1008.24 1008.00 1007.97 1008.10 1008.32 1008.61 1008.93 1009.32 1009.78 1010.34 1011.02 1011.80 1012.67 1013.58 1014.48 1015.31 1016.03 1016.63 1017.11 1017.49 1017.81 1018.11 1018.41 1018.74 1019.08 1019.44 1019.80 1020.13 1020.42 1020.66 1020.86 1021.03 1021.19 1021.34 1021.50
1012.53 1013.42 1014.35 1015.18 1015.77 1016.02 1015.87 1015.32 1014.44 1013.34 1012.16 1011.05 1010.13 1009.45 1009.05 1008.91 1008.96 1009.16 1009.41 1009.70 1009.99 1010.30 1010.65 1011.07 1011.60 1012.24 1012.98 1013.77 1014.58 1015.35 1016.06 1016.67 1017.18 1017.62 1017.99 1018.35 1018.70 1019.06 1019.44 1019.82 1020.18 1020.51 1020.80 1021.04 1021.24 1021.41 1021.56 1021.70 1021.83
1012.13 1013.13 1014.16 1015.09 1015.76 1016.09 1016.00 1015.52 1014.72 1013.70 1012.63 1011.64 1010.84 1010.29 1010.02 1009.99 1010.14 1010.40 1010.69 1010.97 1011.22 1011.44 1011.68 1011.97 1012.35 1012.83 1013.42 1014.09 1014.80 1015.51 1016.19 1016.81 1017.35 1017.83 1018.26 1018.66 1019.04 1019.43 1019.83 1020.21 1020.57 1020.90 1021.19 1021.43 1021.62 1021.79 1021.93 1022.05 1022.16
1011.78 1012.83 1013.90 1014.86 1015.58 1015.94 1015.91 1015.51 1014.81 1013.92 1013.00 1012.17 1011.53 1011.15 1011.03 1011.13 1011.38 1011.71 1012.04 1012.32 1012.53 1012.69 1012.83 1013.00 1013.24 1013.59 1014.04 1014.59 1015.21 1015.87 1016.51 1017.12 1017.68 1018.19 1018.65 1019.07 1019.48 1019.88 1020.27 1020.64 1020.98 1021.29 1021.56 1021.79 1021.98 1022.13 1022.26 1022.37 1022.45
1011.54 1012.56 1013.61 1014.54 1015.23 1015.60 1015.61 1015.28 1014.69 1013.95 1013.21 1012.57 1012.13 1011.93 1011.98 1012.22 1012.59 1012.99 1013.37 1013.66 1013.86 1013.97 1014.04 1014.12 1014.26 1014.49 1014.84 1015.29 1015.83 1016.43 1017.04 1017.64 1018.20 1018.71 1019.18 1019.61 1020.02 1020.40 1020.75 1021.09 1021.40 1021.67 1021.91 1022.11 1022.28 1022.42 1022.53 1022.61 1022.66
1011.43 1012.36 1013.31 1014.15 1014.77 1015.10 1015.12 1014.86 1014.39 1013.81 1013.25 1012.82 1012.59 1012.58 1012.80 1013.19 1013.67 1014.15 1014.58 1014.90 1015.10 1015.20 1015.23 1015.26 1015.33 1015.50 1015.77 1016.15 1016.63 1017.18 1017.75 1018.32 1018.87 1019.38 1019.83 1020.25 1020.62 1020.97 1021.28 1021.56 1021.82 1022.04 1022.23 1022.39 1022.53 1022.64 1022.73 1022.78 1022.80
1011.46 1012.26 1013.06 1013.76 1014.27 1014.53 1014.54 1014.32 1013.96 1013.54 1013.18 1012.95 1012.92 1013.11 1013.49 1014.01 1014.59 1015.15 1015.63 1015.99 1016.21 1016.31 1016.35 1016.36 1016.40 1016.53 1016.76 1017.09 1017.52 1018.03 1018.56 1019.11 1019.63 1020.11 1020.54 1020.92 1021.26 1021.55 1021.81 1022.04 1022.23 1022.40 1022.54 1022.65 1022.74 1022.81 1022.86 1022.88 1022.85
Thickness
5777 5777 5775 5767 5747 5725 5730 5747 5761 5770 5777 5788 5790 5783 5774 5768 5762 5762 5781 5790 5787 5781 5775 5771 5768 5766 5763 5760 5758 5756 5755 5753 5751 5750 5749 5748 5747 5746 5745 5744 5744 5743 5742 5742 5741 5740 5740 5739 5738
5776 5775 5767 5752 5727 5713 5726 5752 5761 5773 5785 5791 5790 5785 5778 5775 5779 5779 5783 5786 5785 5780 5774 5771 5767 5764 5761 5759 5756 5754 5752 5750 5748 5747 5746 5745 5744 5743 5742 5741 5741 5740 5739 5738 5737 5736 5735 5735 5734
5775 5772 5752 5734 5719 5717 5738 5762 5771 5784 5792 5791 5785 5785 5781 5777 5781 5782 5786 5786 5783 5778 5774 5771 5767 5763 5760 5758 5755 5753 5750 5748 5746 5744 5743 5742 5741 5740 5739 5739 5738 5737 5735 5734 5732 5731 5730 5730 5730
5768 5755 5740 5725 5724 5732 5748 5768 5778 5783 5789 5792 5786 5778 5783 5790 5788 5789 5789 5786 5781 5777 5774 5771 5767 5764 5761 5758 5755 5752 5750 5747 5745 5743 5741 5740 5739 5738 5737 5736 5735 5733 5732 5730 5729 5727 5726 5726 5726
5758 5740 5724 5715 5726 5742 5756 5771 5779 5780 5785 5790 5785 5775 5776 5789 5794 5792 5789 5785 5781 5777 5774 5771 5768 5764 5761 5758 5755 5752 5749 5747 5744 5742 5740 5738 5737 5735 5734 5733 5732 5730 5729 5727 5725 5724 5723 5723 5723
5739 5727 5708 5708 5726 5747 5762 5776 5780 5782 5785 5788 5782 5773 5775 5788 5790 5790 5788 5784 5781 5777 5773 5770 5767 5764 5761 5758 5755 5752 5749 5746 5744 5742 5740 5738 5736 5734 5732 5731 5729 5728 5726 5725 5723 5721 5720 5720 5720
5731 5718 5711 5719 5730 5745 5767 5781 5781 5782 5783 5787 5788 5771 5775 5784 5790 5790 5787 5783 5779 5776 5772 5769 5766 5763 5760 5758 5755 5752 5749 5747 5744 5742 5739 5737 5735 5733 5731 5729 5728 5726 5724 5722 5720 5718 5718 5717 5717
5740 5723 5721 5723 5732 5748 5773 5783 5789 5788 5786 5796 5792 5775 5774 5787 5791 5788 5784 5780 5777 5774 5771 5768 5765 5763 5760 5757 5754 5752 5749 5746 5743 5741 5739 5736 5733 5731 5729 5727 5725 5723 5721 5719 5717 5715 5714 5714 5714
5743 5717 5712 5727 5737 5755 5773 5778 5788 5797 5794 5794 5795 5793 5795 5796 5791 5784 5778 5775 5773 5772 5770 5767 5765 5762 5759 5757 5754 5751 5748 5745 5742 5740 5737 5734 5732 5729 5727 5725 5722 5720 5718 5716 5714 5712 5711 5711 5710
5733 5714 5723 5743 5755 5764 5771 5778 5785 5788 5786 5788 5790 5796 5799 5793 5788 5783 5778 5775 5773 5772 5770 5768 5765 5762 5759 5756 5753 5750 5747 5744 5741 5738 5735 5732 5730 5727 5724 5722 5719 5717 5715 5712 5710 5709 5708 5707 5706
5734 5727 5739 5752 5762 5768 5771 5780 5790 5785 5779 5789 5792 5792 5793 5789 5786 5784 5782 5781 5779 5777 5773 5771 5768 5764 5760 5757 5753 5750 5746 5743 5739 5736 5733 5730 5727 5724 5721 5719 5716 5714 5711 5709 5707 5705 5704 5703 5703
5735 5740 5747 5756 5766 5767 5770 5780 5786 5789 5797 5809 5806 5800 5795 5791 5789 5789 5788 5785 5782 5778 5776 5774 5771 5766 5762 5759 5755 5750 5746 5742 5738 5734 5731 5728 5724 5721 5718 5716 5713 5711 5708 5706 5704 5702 5700 5699 5698
5739 5744 5753 5759 5761 5765 5770 5775 5784 5793 5808 5810 5806 5798 5794 5795 5795 5795 5793 5789 5785 5781 5779 5777 5774 5769 5764 5760 5756 5751 5747 5743 5738 5733 5730 5726 5723 5719 5716 5713 5711 5708 5706 5703 5701 5698 5696 5694 5693
5742 5746 5751 5756 5761 5768 5770 5776 5781 5795 5806 5804 5801 5797 5796 5797 5797 5794 5791 5789 5786 5784 5782 5780 5775 5771 5765 5761 5757 5752 5747 5742 5737 5733 5729 5725 5721 5717 5714 5711 5708 5705 5703 5700 5697 5694 5691 5688 5686
5742 5741 5746 5756 5762 5769 5771 5769 5779 5796 5799 5796 5796 5796 5795 5795 5796 5796 5797 5794 5791 5787 5784 5780 5776 5771 5765 5761 5756 5751 5745 5740 5736 5732 5728 5724 5720 5715 5711 5707 5704 5701 5698 5695 5691 5688 5685 5681 5679
5735 5730 5728 5747 5758 5766 5764 5756 5780 5793 5790 5787 5789 5791 5792 5793 5797 5800 5799 5796 5792 5787 5783 5779 5776 5770 5764 5759 5753 5748 5742 5737 5732 5727 5723 5719 5715 5711 5706 5702 5698 5694 5691 5688 5684 5680 5676 5672 5669
5711 5712 5722 5738 5753 5756 5755 5755 5775 5785 5784 5781 5783 5787 5789 5790 5794 5799 5800 5798 5795 5789 5783 5777 5773 5768 5762 5755 5748 5742 5736 5730 5724 5718 5714 5710 5707 5704 5699 5694 5689 5687 5683 5679 5676 5671 5667 5662 5659
5703 5711 5718 5726 5741 5744 5744 5750 5767 5775 5776 5777 5780 5783 5785 5788 5798 5803 5802 5799 5794 5789 5783 5777 5771 5766 5758 5750 5742 5735 5727 5719 5712 5705 5701 5698 5696 5693 5689 5684 5679 5676 5673 5668 5665 5660 5656 5652 5649
5711 5711 5712 5721 5736 5737 5737 5741 5758 5769 5770 5771 5773 5776 5781 5790 5802 5801 5799 5796 5791 5786 5781 5775 5768 5761 5753 5744 5735 5726 5716 5707 5700 5694 5688 5685 5683 5681 5679 5674 5669 5666 5661 5656 5653 5649 5645 5641 5638
5703 5703 5706 5718 5731 5733 5731 5735 5753 5766 5769 5772 5773 5775 5780 5786 5791 5794 5795 5792 5789 5785 5779 5772 5765 5757 5749 5742 5732 5721 5708 5699 5691 5686 5680 5675 5673 5670 5668 5664 5660 5655 5651 5647 5643 5640 5634 5630 5627
5694 5696 5703 5708 5715 5721 5722 5721 5739 5761 5766 5769 5771 5773 5776 5781 5785 5789 5789 5788 5786 5781 5776 5768 5760 5751 5743 5734 5722 5710 5698 5690 5681 5674 5669 5665 5663 5662 5659 5653 5650 5645 5642 5637 5632 5629 5626 5620 5615
5685 5701 5703 5703 5696 5688 5704 5687 5720 5741 5747 5758 5762 5762 5766 5773 5779 5782 5782 5781 5779 5776 5770 5761 5752 5743 5734 5725 5714 5705 5694 5683 5674 5667 5662 5657 5654 5652 5648 5643 5640 5636 5631 5626 5622 5618 5615 5610 5604
5694 5703 5699 5697 5690 5682 5688 5682 5701 5725 5735 5746 5750 5754 5758 5764 5769 5772 5774 5773 5770 5766 5759 5751 5742 5732 5722 5713 5705 5694 5685 5676 5666 5657 5653 5648 5643 5640 5638 5634 5630 5626 5621 5616 5611 5606 5602 5597 5591
5698 5692 5682 5671 5668 5665 5682 5675 5688 5707 5721 5730 5739 5744 5749 5754 5759 5760 5761 5760 5756 5752 5747 5739 5731 5721 5712 5704 5694 5685 5676 5666 5657 5649 5644 5639 5633 5629 5628 5624 5620 5615 5610 5605 5600 5595 5590 5584 5579
5687 5667 5648 5654 5645 5656 5685 5681 5685 5709 5718 5723 5728 5732 5737 5742 5745 5746 5745 5744 5740 5736 5731 5725 5719 5710 5701 5692 5683 5673 5664 5657 5650 5642 5636 5631 5626 5622 5617 5614 5609 5604 5599 5594 5588 5582 5577 5571 5565
5676 5668 5649 5644 5647 5659 5678 5675 5688 5707 5715 5720 5722 5724 5727 5729 5730 5729 5728 5726 5723 5719 5715 5710 5704 5696 5688 5679 5671 5663 5655 5647 5640 5632 5627 5622 5618 5612 5607 5602 5597 5592 5587 5581 5575 5569 5564 5557 5551
5676 5669 5679 5659 5656 5655 5662 5676 5689 5701 5706 5709 5711 5712 5713 5713 5713 5711 5709 5707 5704 5702 5698 5693 5688 5681 5674 5666 5658 5650 5643 5637 5630 5622 5617 5611 5605 5600 5595 5589 5584 5578 5573 5567 5561 5555 5548 5542 5536
5692 5679 5658 5650 5640 5643 5661 5669 5669 5683 5691 5697 5699 5700 5700 5699 5698 5695 5693 5690 5687 5684 5680 5675 5671 5664 5658 5652 5646 5637 5630 5624 5618 5611 5604 5598 5592 5587 5581 5575 5569 5564 5558 5552 5546 5539 5532 5526 5520
5678 5673 5664 5651 5654 5646 5643 5655 5676 5680 5687 5689 5688 5688 5686 5684 5682 5679 5676 5674 5671 5668 5663 5658 5653 5648 5641 5635 5629 5622 5615 5609 5603 5596 5589 5583 5578 5573 5567 5560 5554 5548 5541 5535 5529 5522 5516 5509 5502
5684 5676 5662 5656 5652 5651 5649 5652 5676 5681 5685 5683 5679 5675 5671 5668 5666 5663 5661 5658 5656 5652 5647 5642 5637 5631 5625 5619 5613 5606 5600 5593 5587 5580 5573 5568 5561 5555 5550 5544 5538 5531 5524 5518 5512 5505 5498 5492 5486